Location: São Paulo
(23.5507°S, 46.6334°W)
Time: 15:32:01
(UTC-03:00)

Envisat - Visible Passes

Search period start: 03 August 2021 00:00
Search period end: 13 August 2021 00:00
Orbit: 764 x 766 km, 98.2° (Epoch: 03 August)

Date Brightness Start Highest point End Pass type
(mag) Time Alt. Az. Time Alt. Az. Time Alt. Az.
03 Aug 4.4 04:11:02 10° NE 04:15:36 35° ESE 04:16:54 30° SE visible
03 Aug 4.4 05:51:17 10° NW 05:54:34 17° W 05:57:06 13° WSW visible
03 Aug 5.5 18:08:42 10° SSW 18:12:41 23° WSW 18:16:37 10° WNW visible
04 Aug 5.7 03:36:35 10° E 03:39:05 14° ESE 03:39:45 13° ESE visible
04 Aug 3.2 05:12:47 10° N 05:17:38 45° W 05:19:56 28° SW visible
05 Aug 3.2 04:35:48 10° NNE 04:40:50 69° ESE 04:42:48 37° S visible
05 Aug 6.0 18:35:58 10° SW 18:37:46 12° WSW 18:39:34 10° W visible
06 Aug 4.9 04:00:01 10° NE 04:04:11 26° ESE 04:05:40 23° SE visible
06 Aug 4.1 05:39:04 10° NNW 05:43:02 23° W 05:45:52 15° SW visible
07 Aug 2.9 05:01:08 10° N 05:06:08 61° W 05:08:45 28° SSW visible
08 Aug 3.7 04:24:29 10° NNE 04:29:23 51° ESE 04:31:39 30° SSE visible
08 Aug 4.8 06:06:56 10° WNW 06:08:31 11° W 06:10:05 10° WSW visible
08 Aug 5.8 18:23:22 10° SSW 18:26:24 16° WSW 18:29:25 10° WNW visible
09 Aug 5.3 03:49:09 10° ENE 03:52:48 20° ESE 03:54:33 17° SE visible
09 Aug 3.7 05:27:04 10° NNW 05:31:31 31° W 05:34:46 16° SW visible
10 Aug 2.8 04:49:34 10° N 04:54:40 82° WNW 04:57:42 25° SSW visible
11 Aug 4.3 04:13:17 10° NE 04:17:58 38° ESE 04:20:40 22° SSE visible
11 Aug 4.5 05:53:58 10° NW 05:56:58 16° W 05:59:58 10° WSW visible
11 Aug 5.6 18:11:14 10° SSW 18:15:01 21° WSW 18:18:46 10° WNW visible
12 Aug 5.7 03:38:34 10° ENE 03:41:25 15° ESE 03:43:39 12° SE visible
12 Aug 3.4 05:15:15 10° N 05:20:00 41° W 05:23:52 15° SW visible
